WD5EAA Weather Reports


time (UTC)temp
C
wind
direction
speed
KPH
gust
KPH
rain 1hr
cm
rain 24hr
cm
rain mn
cm
humidity
%
barometer
mb
20260906212020 31 106 6.4 20.9 0.00 0.00 0.00 36 1018.7
20260906211540 31 89 8.0 20.9 0.00 0.00 0.00 36 1018.7
20260906211017 31 123 4.8 17.7 0.00 0.00 0.00 35 1018.8
20260906210526 31 85 4.8 20.9 0.00 0.00 0.00 36 1018.9
20260906210055 31 113 4.8 20.9 0.00 0.00 0.00 36 1019.0
20260906205519 31 120 8.0 19.3 0.00 0.00 0.00 36 1019.1
20260906205016 31 121 8.0 19.3 0.00 0.00 0.00 35 1019.1
20260906204541 31 111 4.8 19.3 0.00 0.00 0.00 36 1019.2
20260906204018 31 119 8.0 20.9 0.00 0.00 0.00 35 1019.3
20260906203519 31 166 4.8 20.9 0.00 0.00 0.00 36 1019.4
20260906203039 31 134 9.7 19.3 0.00 0.00 0.00 36 1019.3
20260906202518 31 117 3.2 17.7 0.00 0.00 0.00 36 1019.4
20260906202020 31 126 9.7 17.7 0.00 0.00 0.00 36 1019.4
20260906201539 30 123 4.8 20.9 0.00 0.00 0.00 37 1019.4
20260906201018 31 97 6.4 20.9 0.00 0.00 0.00 36 1019.4
20260906200524 31 126 8.0 20.9 0.00 0.00 0.00 35 1019.5
20260906200050 30 165 4.8 17.7 0.00 0.00 0.00 36 1019.6
20260906195518 30 119 6.4 19.3 0.00 0.00 0.00 38 1019.6
20260906195018 31 117 8.0 19.3 0.00 0.00 0.00 37 1019.7
20260906194554 30 104 4.8 19.3 0.00 0.00 0.00 39 1019.6
20260906194018 31 113 6.4 19.3 0.00 0.00 0.00 39 1019.8
20260906193519 30 96 8.0 17.7 0.00 0.00 0.00 39 1019.9
20260906193039 30 72 6.4 17.7 0.00 0.00 0.00 39 1019.8
20260906192520 30 89 4.8 20.9 0.00 0.00 0.00 39 1020.0
20260906192018 30 139 6.4 20.9 0.00 0.00 0.00 39 1020.0
20260906191535 30 101 6.4 19.3 0.00 0.00 0.00 38 1020.2
20260906191017 30 0 4.8 16.1 0.00 0.00 0.00 37 1020.2
20260906190516 29 97 1.6 12.9 0.00 0.00 0.00 37 1020.3
20260906190039 30 59 4.8 14.5 0.00 0.00 0.00 37 1020.3
20260906185519 29 131 3.2 14.5 0.00 0.00 0.00 37 1020.4
20260906185019 29 104 3.2 14.5 0.00 0.00 0.00 38 1020.5
20260906184539 28 0 1.6 12.9 0.00 0.00 0.00 38 1020.6
20260906184020 28 149 1.6 14.5 0.00 0.00 0.00 38 1020.8
20260906183522 28 0 1.6 14.5 0.00 0.00 0.00 38 1020.8
20260906183046 28 0 4.8 12.9 0.00 0.00 0.00 39 1020.9
20260906182522 28 211 1.6 9.7 0.00 0.00 0.00 39 1021.0
20260906182021 28 195 1.6 25.7 0.00 0.00 0.00 39 1021.2
20260906181543 28 263 1.6 25.7 0.00 0.00 0.00 39 1021.4
20260906181019 28 239 4.8 25.7 0.00 0.00 0.00 40 1021.6
20260906180519 27 295 1.6 11.3 0.00 0.00 0.00 41 1021.7
20260906180046 27 0 1.6 14.5 0.00 0.00 0.00 41 1021.8
20260906175519 27 349 3.2 14.5 0.00 0.00 0.00 41 1021.8
20260906175025 27 294 3.2 14.5 0.00 0.00 0.00 41 1021.8
20260906174541 27 5 1.6 12.9 0.00 0.00 0.00 42 1021.9
20260906174018 27 315 3.2 14.5 0.00 0.00 0.00 43 1021.8
20260906173520 26 320 4.8 14.5 0.00 0.00 0.00 44 1021.9
20260906173041 26 294 6.4 19.3 0.00 0.00 0.00 43 1022.1
20260906172519 26 9 4.8 19.3 0.00 0.00 0.00 42 1022.0
20260906172021 26 300 8.0 16.1 0.00 0.00 0.00 44 1022.0
20260906171538 26 289 4.8 16.1 0.00 0.00 0.00 43 1022.1
20260906171026 26 323 3.2 14.5 0.00 0.00 0.00 45 1022.2
20260906170525 25 319 3.2 14.5 0.00 0.00 0.00 45 1022.0
20260906170051 25 317 4.8 16.1 0.00 0.00 0.00 48 1022.1
20260906165521 25 323 4.8 16.1 0.00 0.00 0.00 50 1022.2
20260906165022 25 350 6.4 16.1 0.00 0.00 0.00 49 1022.2
20260906164552 24 289 4.8 16.1 0.00 0.00 0.00 52 1022.2
20260906164020 24 271 8.0 16.1 0.00 0.00 0.00 54 1022.3
20260906163516 23 309 8.0 17.7 0.00 0.00 0.00 55 1022.3
20260906163048 24 305 8.0 17.7 0.00 0.00 0.00 56 1022.2
20260906162519 23 256 11.3 17.7 0.00 0.00 0.00 60 1022.3
20260906162019 23 276 11.3 24.1 0.00 0.00 0.00 61 1022.4
20260906161539 22 290 12.9 24.1 0.00 0.00 0.00 62 1022.4
20260906161019 22 304 12.9 20.9 0.00 0.00 0.00 64 1022.5
20260906160518 22 269 9.7 20.9 0.00 0.00 0.00 66 1022.5
20260906160050 22 279 11.3 20.9 0.00 0.00 0.00 66 1022.4
20260906155524 21 286 11.3 20.9 0.00 0.00 0.00 67 1022.4
20260906155019 22 269 11.3 19.3 0.00 0.00 0.00 67 1022.4
20260906154543 22 273 12.9 22.5 0.00 0.00 0.00 66 1022.3
20260906154020 21 278 11.3 22.5 0.00 0.00 0.00 69 1022.3
20260906153516 21 291 11.3 19.3 0.00 0.00 0.00 69 1022.3
20260906153045 21 307 11.3 19.3 0.00 0.00 0.00 70 1022.3
20260906152522 21 292 11.3 19.3 0.00 0.00 0.00 70 1022.2
20260906152020 20 263 8.0 17.7 0.00 0.00 0.00 72 1022.2
20260906151538 20 305 6.4 19.3 0.00 0.00 0.00 73 1022.3
20260906151018 20 311 8.0 20.9 0.00 0.00 0.00 73 1022.3
20260906150521 20 292 12.9 24.1 0.00 0.00 0.00 74 1022.3
20260906150052 20 306 14.5 24.1 0.00 0.00 0.00 74 1022.4
20260906145520 20 300 17.7 24.1 0.00 0.00 0.00 75 1022.2
20260906145021 20 306 19.3 27.4 0.00 0.00 0.00 75 1022.1
20260906144555 19 306 17.7 27.4 0.00 0.00 0.00 75 1022.1
20260906144018 19 277 19.3 29.0 0.00 0.00 0.00 75 1022.1
20260906143520 18 281 20.9 29.0 0.00 0.00 0.00 76 1022.0
20260906143038 18 281 22.5 29.0 0.00 0.00 0.00 77 1022.0
20260906142521 18 279 22.5 29.0 0.00 0.00 0.00 77 1022.0
20260906142019 18 278 22.5 29.0 0.00 0.00 0.00 78 1022.0
20260906141543 17 274 22.5 30.6 0.00 0.00 0.00 78 1022.0
20260906141018 18 279 24.1 30.6 0.00 0.00 0.00 78 1022.0
20260906140516 17 281 22.5 29.0 0.00 0.00 0.00 78 1021.9
20260906140041 17 276 22.5 29.0 0.00 0.00 0.00 77 1021.8
20260906135516 17 277 20.9 27.4 0.00 0.00 0.00 77 1021.8
20260906135018 17 271 22.5 27.4 0.00 0.00 0.00 78 1021.8
20260906134541 16 270 20.9 25.7 0.00 0.00 0.00 78 1021.7
20260906134018 16 275 20.9 25.7 0.00 0.00 0.00 79 1021.6
20260906133522 16 275 19.3 25.7 0.00 0.00 0.00 79 1021.6
20260906133039 16 275 17.7 24.1 0.00 0.00 0.00 80 1021.6
20260906132518 15 288 17.7 24.1 0.00 0.00 0.00 80 1021.5
20260906132022 15 281 19.3 24.1 0.00 0.00 0.00 80 1021.4
20260906131539 15 272 19.3 24.1 0.00 0.00 0.00 81 1021.4
20260906131020 15 269 19.3 22.5 0.00 0.00 0.00 82 1021.5
20260906130519 15 270 16.1 22.5 0.00 0.00 0.00 83 1021.4
20260906130045 15 265 17.7 22.5 0.00 0.00 0.00 84 1021.4
20260906125519 15 267 17.7 22.5 0.00 0.00 0.00 83 1021.4
20260906125019 15 275 17.7 22.5 0.00 0.00 0.00 83 1021.6
20260906124539 14 272 16.1 22.5 0.00 0.00 0.00 82 1021.5
20260906124018 14 274 17.7 20.9 0.00 0.00 0.00 80 1021.4
20260906123518 13 264 16.1 20.9 0.00 0.00 0.00 78 1021.4
20260906123039 13 264 16.1 19.3 0.00 0.00 0.00 78 1021.4
20260906122519 13 270 16.1 19.3 0.00 0.00 0.00 78 1021.4
20260906122018 13 273 16.1 19.3 0.00 0.00 0.00 78 1021.3
20260906121541 13 271 16.1 17.7 0.00 0.00 0.00 77 1021.3
20260906121017 13 279 14.5 17.7 0.00 0.00 0.00 76 1021.3
20260906120520 13 281 14.5 17.7 0.00 0.00 0.00 76 1021.4
20260906120047 13 287 14.5 17.7 0.00 0.00 0.00 75 1021.3
20260906115518 13 284 14.5 17.7 0.00 0.00 0.00 75 1021.2
20260906115019 13 273 14.5 17.7 0.00 0.00 0.00 74 1021.2
20260906114543 13 272 12.9 14.5 0.00 0.00 0.00 75 1021.3
20260906114023 13 268 9.7 12.9 0.00 0.00 0.00 75 1021.3
20260906113522 13 263 11.3 16.1 0.00 0.00 0.00 75 1021.3
20260906113038 13 268 11.3 16.1 0.00 0.00 0.00 74 1021.2
20260906112517 13 259 12.9 16.1 0.00 0.00 0.00 73 1021.3
20260906112021 14 252 12.9 16.1 0.00 0.00 0.00 71 1021.4
20260906111547 15 255 9.7 16.1 0.00 0.00 0.00 70 1021.4
20260906111018 15 269 11.3 16.1 0.00 0.00 0.00 71 1021.2
20260906110519 15 275 9.7 12.9 0.00 0.00 0.00 71 1021.3
20260906110042 15 273 9.7 12.9 0.00 0.00 0.00 71 1021.3
20260906105518 15 263 9.7 12.9 0.00 0.00 0.00 70 1021.1
20260906105018 15 275 6.4 12.9 0.00 0.00 0.00 71 1021.3
20260906104543 15 245 9.7 12.9 0.00 0.00 0.00 70 1021.3
20260906104020 15 248 9.7 12.9 0.00 0.00 0.00 69 1021.2
20260906103520 15 254 8.0 12.9 0.00 0.00 0.00 69 1021.3
20260906103038 15 243 9.7 14.5 0.00 0.00 0.00 69 1021.2
20260906102519 15 234 9.7 14.5 0.00 0.00 0.00 68 1021.2
20260906102019 16 246 12.9 14.5 0.00 0.00 0.00 67 1021.1
20260906101538 16 243 6.4 11.3 0.00 0.00 0.00 67 1021.1
20260906101018 16 231 4.8 6.4 0.00 0.00 0.00 67 1021.2
20260906100524 16 231 4.8 6.4 0.00 0.00 0.00 67 1021.2
20260906100041 16 231 3.2 11.3 0.00 0.00 0.00 67 1021.1
20260906095522 16 238 6.4 14.5 0.00 0.00 0.00 67 1021.1
20260906095021 16 245 8.0 14.5 0.00 0.00 0.00 66 1021.0
20260906094606 16 244 11.3 14.5 0.00 0.00 0.00 65 1021.0
20260906094017 17 257 8.0 12.9 0.00 0.00 0.00 64 1021.0
20260906093519 17 269 8.0 9.7 0.00 0.00 0.00 64 1021.0
20260906093040 17 278 4.8 9.7 0.00 0.00 0.00 64 1020.9
20260906092516 17 265 6.4 9.7 0.00 0.00 0.00 63 1021.0
20260906092021 17 281 4.8 6.4 0.00 0.00 0.00 63 1021.0
20260906091543 16 282 1.6 9.7 0.00 0.00 0.00 64 1021.0
20260906091021 16 282 3.2 12.9 0.00 0.00 0.00 64 1021.0
20260906090521 16 277 8.0 12.9 0.00 0.00 0.00 63 1020.7
20260906090038 17 279 11.3 12.9 0.00 0.00 0.00 62 1020.6
20260906085518 17 275 9.7 14.5 0.00 0.00 0.00 61 1020.8
20260906085020 17 283 11.3 14.5 0.00 0.00 0.00 61 1020.8
20260906084541 17 271 11.3 14.5 0.00 0.00 0.00 61 1020.8
20260906084019 17 258 9.7 12.9 0.00 0.00 0.00 59 1020.8
20260906083523 17 275 8.0 12.9 0.00 0.00 0.00 58 1021.0
20260906083039 18 258 6.4 11.3 0.00 0.00 0.00 56 1021.0
20260906082518 18 258 1.6 14.5 0.00 0.00 0.00 56 1021.3
20260906082020 18 258 3.2 14.5 0.00 0.00 0.00 56 1021.2
20260906081548 19 238 11.3 14.5 0.00 0.00 0.00 54 1021.1
20260906081021 19 269 4.8 9.7 0.00 0.00 0.00 54 1021.3
20260906080523 19 160 3.2 8.0 0.00 0.00 0.00 55 1021.5
20260906080045 19 160 3.2 8.0 0.00 0.00 0.00 54 1021.4
20260906075517 19 86 3.2 9.7 0.00 0.00 0.00 54 1021.4
20260906075022 18 86 0.0 12.9 0.00 0.00 0.00 55 1021.4
20260906074540 18 86 6.4 14.5 0.00 0.00 0.00 55 1021.4
20260906074017 18 94 9.7 14.5 0.00 0.00 0.00 55 1021.5
20260906073519 19 246 6.4 12.9 0.00 0.00 0.00 54 1021.1
20260906073039 19 269 11.3 12.9 0.00 0.00 0.00 54 1021.0
20260906072521 19 264 11.3 12.9 0.00 0.00 0.00 54 1020.9
20260906072018 19 271 11.3 16.1 0.00 0.00 0.00 54 1020.9
20260906071537 19 256 9.7 16.1 0.00 0.00 0.00 54 1020.8
20260906071019 19 259 12.9 16.1 0.00 0.00 0.00 55 1020.9
20260906070528 19 254 6.4 11.3 0.00 0.00 0.00 54 1020.8
20260906070042 19 255 6.4 14.5 0.00 0.00 0.00 52 1020.7
20260906065519 20 265 6.4 14.5 0.00 0.00 0.00 51 1020.7
20260906065017 20 291 11.3 19.3 0.00 0.00 0.00 49 1020.6
20260906064539 21 294 11.3 19.3 0.00 0.00 0.00 48 1020.6
20260906064018 21 313 11.3 19.3 0.00 0.00 0.00 49 1020.6
20260906063521 21 325 12.9 20.9 0.00 0.00 0.00 49 1020.6
20260906063044 20 298 16.1 20.9 0.00 0.00 0.00 51 1020.5
20260906062522 20 279 17.7 22.5 0.00 0.00 0.00 50 1020.7
20260906062019 21 293 14.5 22.5 0.00 0.00 0.00 48 1020.7
20260906061541 21 299 16.1 22.5 0.00 0.00 0.00 47 1020.8
20260906061021 22 286 14.5 22.5 0.00 0.00 0.00 46 1021.0
20260906060519 22 289 14.5 24.1 0.00 0.00 0.00 46 1020.9
20260906060039 22 287 16.1 24.1 0.00 0.00 0.00 45 1020.9
20260906055518 22 287 16.1 29.0 0.00 0.00 0.00 45 1020.8
20260906055016 22 284 16.1 29.0 0.00 0.00 0.00 45 1020.9
20260906054540 22 307 19.3 25.7 0.00 0.00 0.00 46 1020.9
20260906054019 22 286 12.9 22.5 0.00 0.00 0.00 46 1020.8
20260906053519 22 288 14.5 25.7 0.00 0.00 0.00 45 1020.8
20260906053037 22 274 17.7 25.7 0.00 0.00 0.00 45 1020.8
20260906052520 21 261 14.5 20.9 0.00 0.00 0.00 47 1020.9
20260906052020 21 260 12.9 17.7 0.00 0.00 0.00 48 1020.9
20260906051540 21 268 12.9 17.7 0.00 0.00 0.00 47 1021.0
20260906051016 21 274 12.9 16.1 0.00 0.00 0.00 47 1020.9
20260906050516 21 283 12.9 16.1 0.00 0.00 0.00 47 1021.0
20260906050041 21 288 12.9 17.7 0.00 0.00 0.00 47 1021.1
20260906045524 21 272 12.9 17.7 0.00 0.00 0.00 47 1021.1
20260906045018 21 277 14.5 17.7 0.00 0.00 0.00 48 1021.0
20260906044542 21 271 14.5 17.7 0.00 0.00 0.00 49 1021.0
20260906044024 20 273 12.9 16.1 0.00 0.00 0.00 49 1021.1
20260906043525 20 276 12.9 16.1 0.00 0.00 0.00 49 1021.0
20260906043045 20 287 12.9 16.1 0.00 0.00 0.00 49 1021.0
20260906042517 20 261 11.3 14.5 0.00 0.00 0.00 47 1021.0
20260906042016 21 252 8.0 12.9 0.00 0.00 0.00 46 1021.0
20260906041541 21 277 8.0 12.9 0.00 0.00 0.00 45 1021.0
20260906041024 22 279 4.8 12.9 0.00 0.00 0.00 43 1021.0
20260906040523 22 290 8.0 19.3 0.00 0.00 0.00 43 1020.9
20260906040040 23 278 11.3 19.3 0.00 0.00 0.00 41 1021.0
20260906035521 23 317 4.8 12.9 0.00 0.00 0.00 41 1020.9
20260906035021 23 175 8.0 12.9 0.00 0.00 0.00 43 1021.0
20260906034544 24 163 6.4 12.9 0.00 0.00 0.00 39 1021.0
20260906034017 24 171 6.4 12.9 0.00 0.00 0.00 36 1021.0
20260906033516 25 190 4.8 9.7 0.00 0.00 0.00 35 1021.1
20260906033041 25 175 4.8 9.7 0.00 0.00 0.00 35 1021.1
20260906032522 25 194 3.2 20.9 0.00 0.00 0.00 34 1021.2
20260906032016 25 302 6.4 20.9 0.00 0.00 0.00 35 1021.2
20260906031548 25 360 8.0 29.0 0.00 0.00 0.00 35 1021.2
20260906031019 25 44 9.7 29.0 0.00 0.00 0.00 36 1021.3
20260906030520 24 101 11.3 22.5 0.00 0.00 0.00 43 1021.0
20260906030039 23 86 8.0 16.1 0.00 0.00 0.00 37 1021.0
20260906025521 23 95 9.7 20.9 0.00 0.00 0.00 36 1020.7
20260906025020 24 360 4.8 20.9 0.00 0.00 0.00 36 1020.2
20260906024543 24 330 8.0 16.1 0.00 0.00 0.00 37 1020.0
20260906024025 23 346 8.0 14.5 0.00 0.00 0.00 38 1020.0
20260906023518 23 288 8.0 17.7 0.00 0.00 0.00 40 1019.8
20260906023049 23 279 11.3 17.7 0.00 0.00 0.00 39 1019.7
20260906022518 24 257 6.4 14.5 0.00 0.00 0.00 37 1019.6
20260906022019 24 225 8.0 16.1 0.00 0.00 0.00 37 1019.6
20260906021540 24 209 9.7 16.1 0.00 0.00 0.00 36 1019.5
20260906021017 25 200 11.3 16.1 0.00 0.00 0.00 36 1019.5
20260906020520 25 202 11.3 17.7 0.00 0.00 0.00 35 1019.4
20260906020052 25 197 12.9 17.7 0.00 0.00 0.00 35 1019.2
20260906015524 25 190 11.3 17.7 0.00 0.00 0.00 34 1019.2
20260906015019 26 189 11.3 19.3 0.00 0.00 0.00 33 1019.2
20260906014550 26 190 11.3 19.3 0.00 0.00 0.00 33 1019.2
20260906014027 26 186 11.3 19.3 0.00 0.00 0.00 33 1019.2
20260906013519 26 191 12.9 19.3 0.00 0.00 0.00 33 1019.1
20260906013039 26 190 11.3 17.7 0.00 0.00 0.00 33 1019.0
20260906012518 26 191 8.0 14.5 0.00 0.00 0.00 33 1019.1
20260906012021 26 186 8.0 14.5 0.00 0.00 0.00 32 1019.1
20260906011538 27 187 6.4 12.9 0.00 0.00 0.00 32 1019.1
20260906011117 27 186 6.4 12.9 0.00 0.00 0.00 31 1019.1
20260906010520 27 186 4.8 12.9 0.00 0.00 0.00 30 1019.1
20260906010043 28 195 4.8 12.9 0.00 0.00 0.00 29 1019.2
20260906005516 28 182 4.8 14.5 0.00 0.00 0.00 29 1019.0
20260906005019 29 163 6.4 14.5 0.00 0.00 0.00 28 1019.1
20260906004539 29 165 6.4 16.1 0.00 0.00 0.00 28 1019.2
20260906004022 30 171 6.4 16.1 0.00 0.00 0.00 27 1019.2
20260906003524 30 172 6.4 14.5 0.00 0.00 0.00 26 1019.2
20260906003044 30 152 6.4 16.1 0.00 0.00 0.00 26 1019.1
20260906002518 30 175 6.4 16.1 0.00 0.00 0.00 26 1019.0
20260906002018 30 0 3.2 16.1 0.00 0.00 0.00 25 1018.9
20260906001539 31 151 6.4 19.3 0.00 0.00 0.00 25 1018.9
20260906001018 31 140 6.4 19.3 0.00 0.00 0.00 25 1018.9
20260906000518 31 134 6.4 19.3 0.00 0.00 0.00 24 1018.8
20260906000042 31 186 6.4 16.1 0.00 0.00 0.00 25 1018.8
20260905235517 31 175 6.4 16.1 0.00 0.00 0.00 24 1018.8
20260905235019 32 177 3.2 16.1 0.00 0.00 0.00 24 1018.8
20260905234540 32 0 4.8 16.1 0.00 0.00 0.00 24 1018.8
20260905234031 32 193 6.4 14.5 0.00 0.00 0.00 24 1018.7
20260905233519 32 123 3.2 11.3 0.00 0.00 0.00 23 1018.7
20260905233042 32 38 3.2 12.9 0.00 0.00 0.00 23 1018.7
20260905232518 32 85 3.2 12.9 0.00 0.00 0.00 22 1018.7
20260905232019 32 115 4.8 12.9 0.00 0.00 0.00 22 1018.7
20260905231541 32 82 3.2 14.5 0.00 0.00 0.00 23 1018.7
20260905231018 32 130 4.8 14.5 0.00 0.00 0.00 22 1018.6
20260905230521 32 114 1.6 9.7 0.00 0.00 0.00 23 1018.7
20260905230050 32 197 3.2 14.5 0.00 0.00 0.00 23 1018.7
20260905225517 32 0 3.2 14.5 0.00 0.00 0.00 23 1018.6
20260905225016 31 110 1.6 9.7 0.00 0.00 0.00 24 1018.6
20260905224539 31 0 0.0 9.7 0.00 0.00 0.00 24 1018.7
20260905224021 31 0 1.6 14.5 0.00 0.00 0.00 24 1018.7
20260905223521 32 95 4.8 14.5 0.00 0.00 0.00 23 1018.8
20260905223044 32 89 6.4 12.9 0.00 0.00 0.00 23 1018.7
20260905222519 32 32 1.6 8.0 0.00 0.00 0.00 23 1018.8
20260905222027 32 23 0.0 8.0 0.00 0.00 0.00 23 1018.7
20260905221547 32 44 1.6 16.1 0.00 0.00 0.00 23 1018.7
20260905221018 32 83 4.8 16.1 0.00 0.00 0.00 23 1018.7
20260905220517 32 84 4.8 14.5 0.00 0.00 0.00 24 1018.7
20260905220039 32 73 3.2 14.5 0.00 0.00 0.00 24 1018.8
20260905215524 32 19 4.8 14.5 0.00 0.00 0.00 23 1019.0
20260905215018 31 43 6.4 14.5 0.00 0.00 0.00 25 1018.9
20260905214541 31 0 3.2 16.1 0.00 0.00 0.00 23 1019.1
20260905214019 30 323 4.8 19.3 0.00 0.00 0.00 23 1019.0
20260905213519 31 9 4.8 19.3 0.00 0.00 0.00 22 1019.0
20260905213043 31 10 4.8 17.7 0.00 0.00 0.00 23 1018.8
20260905212517 31 44 3.2 11.3 0.00 0.00 0.00 22 1019.0